Time,TemperatureF,DewpointF,PressureIn,WindDirection,WindDirectionDegrees,WindSpeedMPH,WindSpeedGustMPH,Humidity,HourlyPrecipIn,Conditions,Clouds,dailyrainin,SoftwareType,DateUTC
2013-02-20 00:01:00,32.0,31.0,-100.00,SW,231,13.0,19.0,97,-99.99,,,-99.99,,2013-02-20 08:01:00,
2013-02-20 00:11:00,32.0,32.0,-100.00,SW,230,13.0,20.0,98,-99.99,,,-99.99,,2013-02-20 08:11:00,
2013-02-20 00:21:00,32.0,32.0,-100.00,SW,234,15.0,22.0,98,-99.99,,,-99.99,,2013-02-20 08:21:00,
2013-02-20 00:31:00,32.0,32.0,-100.00,SW,234,15.0,22.0,98,-99.99,,,-99.99,,2013-02-20 08:31:00,
2013-02-20 00:41:00,32.0,32.0,-100.00,WSW,238,24.0,32.0,98,-99.99,,,-99.99,,2013-02-20 08:41:00,
2013-02-20 00:52:00,32.0,32.0,-100.00,SW,231,19.0,26.0,99,-99.99,,,-99.99,,2013-02-20 08:52:00,
2013-02-20 01:01:00,32.0,32.0,-100.00,SW,227,19.0,27.0,99,-99.99,,,-99.99,,2013-02-20 09:01:00,
2013-02-20 01:11:00,32.0,32.0,-100.00,SW,227,18.0,24.0,99,-99.99,,,-99.99,,2013-02-20 09:11:00,
2013-02-20 01:21:00,32.0,32.0,-100.00,SW,229,15.0,22.0,99,-99.99,,,-99.99,,2013-02-20 09:21:00,
2013-02-20 01:31:00,32.0,32.0,-100.00,SW,231,13.0,18.0,99,-99.99,,,-99.99,,2013-02-20 09:31:00,
2013-02-20 01:41:00,32.0,32.0,-100.00,SW,225,13.0,23.0,99,-99.99,,,-99.99,,2013-02-20 09:41:00,
2013-02-20 01:51:00,32.0,32.0,-100.00,SW,221,15.0,22.0,99,-99.99,,,-99.99,,2013-02-20 09:51:00,
2013-02-20 02:01:00,32.0,32.0,-100.00,SW,228,13.0,21.0,99,-99.99,,,-99.99,,2013-02-20 10:01:00,
2013-02-20 02:12:00,32.0,32.0,-100.00,WSW,249,21.0,31.0,99,-99.99,,,-99.99,,2013-02-20 10:12:00,
2013-02-20 02:21:00,32.0,32.0,-100.00,WSW,254,22.0,35.0,99,-99.99,,,-99.99,,2013-02-20 10:21:00,
2013-02-20 02:31:00,32.0,32.0,-100.00,West,262,20.0,31.0,99,-99.99,,,-99.99,,2013-02-20 10:31:00,
2013-02-20 02:41:00,32.0,32.0,-100.00,West,263,17.0,29.0,99,-99.99,,,-99.99,,2013-02-20 10:41:00,
2013-02-20 02:51:00,32.0,32.0,-100.00,West,263,22.0,31.0,99,-99.99,,,-99.99,,2013-02-20 10:51:00,
2013-02-20 03:01:00,32.0,32.0,-100.00,West,273,27.0,41.0,99,-99.99,,,-99.99,,2013-02-20 11:01:00,
2013-02-20 03:11:00,32.0,32.0,-100.00,West,277,27.0,38.0,99,-99.99,,,-99.99,,2013-02-20 11:11:00,
2013-02-20 03:21:00,32.0,32.0,-100.00,West,273,25.0,38.0,99,-99.99,,,-99.99,,2013-02-20 11:21:00,
2013-02-20 03:31:00,32.0,32.0,-100.00,West,267,23.0,33.0,99,-99.99,,,-99.99,,2013-02-20 11:31:00,
2013-02-20 03:41:00,31.0,31.0,-100.00,West,265,21.0,31.0,99,-99.99,,,-99.99,,2013-02-20 11:41:00,
2013-02-20 03:52:00,31.0,31.0,-100.00,West,265,20.0,33.0,99,-99.99,,,-99.99,,2013-02-20 11:52:00,
2013-02-20 04:01:00,32.0,32.0,-100.00,West,268,22.0,34.0,99,-99.99,,,-99.99,,2013-02-20 12:01:00,
2013-02-20 04:11:00,32.0,32.0,-100.00,West,265,20.0,29.0,99,-99.99,,,-99.99,,2013-02-20 12:11:00,
2013-02-20 04:21:00,31.0,31.0,-100.00,West,269,20.0,29.0,99,-99.99,,,-99.99,,2013-02-20 12:21:00,
2013-02-20 04:31:00,31.0,31.0,-100.00,West,270,22.0,34.0,99,-99.99,,,-99.99,,2013-02-20 12:31:00,
2013-02-20 04:42:00,31.0,31.0,-100.00,West,265,22.0,33.0,99,-99.99,,,-99.99,,2013-02-20 12:42:00,
2013-02-20 04:52:00,31.0,31.0,-100.00,West,265,21.0,30.0,99,-99.99,,,-99.99,,2013-02-20 12:52:00,
2013-02-20 05:01:00,31.0,31.0,-100.00,West,265,20.0,32.0,99,-99.99,,,-99.99,,2013-02-20 13:01:00,
2013-02-20 05:11:00,31.0,31.0,-100.00,West,259,22.0,31.0,99,-99.99,,,-99.99,,2013-02-20 13:11:00,
2013-02-20 05:22:00,30.0,30.0,-100.00,West,263,21.0,31.0,99,-99.99,,,-99.99,,2013-02-20 13:22:00,
2013-02-20 05:31:00,30.0,30.0,-100.00,West,259,20.0,29.0,99,-99.99,,,-99.99,,2013-02-20 13:31:00,
2013-02-20 05:42:00,30.0,30.0,-100.00,West,259,20.0,29.0,99,-99.99,,,-99.99,,2013-02-20 13:42:00,
2013-02-20 05:51:00,30.0,30.0,-100.00,West,259,20.0,29.0,99,-99.99,,,-99.99,,2013-02-20 13:51:00,
2013-02-20 06:01:00,30.0,30.0,-100.00,WSW,255,21.0,35.0,99,-99.99,,,-99.99,,2013-02-20 14:01:00,
2013-02-20 06:11:00,29.0,29.0,-100.00,West,260,22.0,35.0,100,-99.99,,,-99.99,,2013-02-20 14:11:00,
2013-02-20 06:21:00,29.0,29.0,-100.00,West,269,25.0,39.0,99,-99.99,,,-99.99,,2013-02-20 14:21:00,
2013-02-20 06:32:00,30.0,30.0,-100.00,West,274,16.0,26.0,99,-99.99,,,-99.99,,2013-02-20 14:32:00,
2013-02-20 06:42:00,30.0,30.0,-100.00,West,270,17.0,27.0,99,-99.99,,,-99.99,,2013-02-20 14:42:00,
2013-02-20 06:52:00,30.0,30.0,-100.00,West,273,19.0,30.0,99,-99.99,,,-99.99,,2013-02-20 14:52:00,
2013-02-20 07:01:00,30.0,30.0,-100.00,West,278,20.0,30.0,99,-99.99,,,-99.99,,2013-02-20 15:01:00,
2013-02-20 07:11:00,30.0,30.0,-100.00,West,278,21.0,31.0,99,-99.99,,,-99.99,,2013-02-20 15:11:00,
2013-02-20 07:22:00,29.0,29.0,-100.00,West,281,19.0,27.0,99,-99.99,,,-99.99,,2013-02-20 15:22:00,
2013-02-20 07:31:00,29.0,29.0,-100.00,West,275,16.0,24.0,99,-99.99,,,-99.99,,2013-02-20 15:31:00,
2013-02-20 07:41:00,29.0,29.0,-100.00,West,263,23.0,33.0,99,-99.99,,,-99.99,,2013-02-20 15:41:00,
2013-02-20 07:51:00,29.0,29.0,-100.00,West,260,20.0,34.0,99,-99.99,,,-99.99,,2013-02-20 15:51:00,
2013-02-20 08:01:00,29.0,29.0,-100.00,West,260,20.0,30.0,99,-99.99,,,-99.99,,2013-02-20 16:01:00,
2013-02-20 08:11:00,30.0,30.0,-100.00,West,262,19.0,29.0,99,-99.99,,,-99.99,,2013-02-20 16:11:00,
2013-02-20 08:21:00,30.0,30.0,-100.00,West,265,22.0,32.0,99,-99.99,,,-99.99,,2013-02-20 16:21:00,
2013-02-20 08:32:00,31.0,31.0,-100.00,West,269,20.0,28.0,99,-99.99,,,-99.99,,2013-02-20 16:32:00,
2013-02-20 08:41:00,30.0,30.0,-100.00,West,271,21.0,35.0,99,-99.99,,,-99.99,,2013-02-20 16:41:00,
2013-02-20 08:51:00,29.0,29.0,-100.00,West,267,19.0,28.0,99,-99.99,,,-99.99,,2013-02-20 16:51:00,
2013-02-20 09:01:00,29.0,29.0,-100.00,West,267,19.0,28.0,99,-99.99,,,-99.99,,2013-02-20 17:01:00,
2013-02-20 09:11:00,30.0,29.0,-100.00,West,275,21.0,35.0,98,-99.99,,,-99.99,,2013-02-20 17:11:00,
2013-02-20 09:21:00,30.0,29.0,-100.00,West,273,24.0,36.0,98,-99.99,,,-99.99,,2013-02-20 17:21:00,
2013-02-20 09:32:00,30.0,29.0,-100.00,West,263,20.0,30.0,97,-99.99,,,-99.99,,2013-02-20 17:32:00,
2013-02-20 09:41:00,31.0,30.0,-100.00,West,261,21.0,30.0,97,-99.99,,,-99.99,,2013-02-20 17:41:00,
2013-02-20 09:52:00,31.0,30.0,-100.00,West,261,21.0,29.0,96,-99.99,,,-99.99,,2013-02-20 17:52:00,
2013-02-20 10:02:00,31.0,30.0,-100.00,West,267,21.0,31.0,97,-99.99,,,-99.99,,2013-02-20 18:02:00,
2013-02-20 10:11:00,32.0,31.0,-100.00,West,271,23.0,33.0,97,-99.99,,,-99.99,,2013-02-20 18:11:00,
2013-02-20 10:21:00,32.0,31.0,-100.00,West,267,24.0,33.0,96,-99.99,,,-99.99,,2013-02-20 18:21:00,
2013-02-20 10:31:00,32.0,31.0,-100.00,West,262,21.0,28.0,96,-99.99,,,-99.99,,2013-02-20 18:31:00,
2013-02-20 10:41:00,33.0,32.0,-100.00,West,260,19.0,28.0,96,-99.99,,,-99.99,,2013-02-20 18:41:00,
2013-02-20 10:51:00,32.0,31.0,-100.00,West,269,19.0,27.0,95,-99.99,,,-99.99,,2013-02-20 18:51:00,
2013-02-20 11:01:00,32.0,30.0,-100.00,West,272,24.0,34.0,94,-99.99,,,-99.99,,2013-02-20 19:01:00,
2013-02-20 11:11:00,32.0,30.0,-100.00,West,265,20.0,27.0,94,-99.99,,,-99.99,,2013-02-20 19:11:00,
2013-02-20 11:21:00,32.0,30.0,-100.00,West,266,20.0,28.0,94,-99.99,,,-99.99,,2013-02-20 19:21:00,
2013-02-20 11:31:00,33.0,31.0,-100.00,West,265,22.0,30.0,93,-99.99,,,-99.99,,2013-02-20 19:31:00,
2013-02-20 11:41:00,33.0,31.0,-100.00,West,265,22.0,30.0,93,-99.99,,,-99.99,,2013-02-20 19:41:00,
2013-02-20 11:51:00,33.0,31.0,-100.00,West,265,23.0,30.0,91,-99.99,,,-99.99,,2013-02-20 19:51:00,
2013-02-20 12:01:00,33.0,31.0,-100.00,West,265,23.0,30.0,91,-99.99,,,-99.99,,2013-02-20 20:01:00,
2013-02-20 12:11:00,34.0,31.0,-100.00,West,264,22.0,30.0,88,-99.99,,,-99.99,,2013-02-20 20:11:00,
2013-02-20 12:21:00,35.0,31.0,-100.00,West,265,19.0,28.0,84,-99.99,,,-99.99,,2013-02-20 20:21:00,
2013-02-20 12:31:00,35.0,29.0,-100.00,West,259,22.0,29.0,80,-99.99,,,-99.99,,2013-02-20 20:31:00,
2013-02-20 12:41:00,35.0,29.0,-100.00,WSW,258,21.0,29.0,77,-99.99,,,-99.99,,2013-02-20 20:41:00,
2013-02-20 12:51:00,35.0,27.0,-100.00,WSW,258,22.0,29.0,71,-99.99,,,-99.99,,2013-02-20 20:51:00,
2013-02-20 13:01:00,35.0,27.0,-100.00,WSW,257,20.0,28.0,73,-99.99,,,-99.99,,2013-02-20 21:01:00,
2013-02-20 13:11:00,36.0,29.0,-100.00,WSW,257,19.0,25.0,74,-99.99,,,-99.99,,2013-02-20 21:11:00,
2013-02-20 13:21:00,36.0,29.0,-100.00,West,260,17.0,24.0,75,-99.99,,,-99.99,,2013-02-20 21:21:00,
2013-02-20 13:31:00,36.0,28.0,-100.00,West,260,19.0,26.0,73,-99.99,,,-99.99,,2013-02-20 21:31:00,
2013-02-20 13:41:00,36.0,28.0,-100.00,WSW,258,21.0,31.0,71,-99.99,,,-99.99,,2013-02-20 21:41:00,
2013-02-20 13:51:00,36.0,28.0,-100.00,West,262,22.0,31.0,72,-99.99,,,-99.99,,2013-02-20 21:51:00,
2013-02-20 14:01:00,36.0,28.0,-100.00,West,262,22.0,31.0,72,-99.99,,,-99.99,,2013-02-20 22:01:00,
2013-02-20 14:11:00,37.0,28.0,-100.00,West,260,20.0,26.0,70,-99.99,,,-99.99,,2013-02-20 22:11:00,
2013-02-20 14:21:00,37.0,28.0,-100.00,West,260,20.0,26.0,70,-99.99,,,-99.99,,2013-02-20 22:21:00,
2013-02-20 14:31:00,37.0,28.0,-100.00,West,268,17.0,25.0,70,-99.99,,,-99.99,,2013-02-20 22:31:00,
2013-02-20 14:41:00,37.0,28.0,-100.00,West,268,17.0,26.0,69,-99.99,,,-99.99,,2013-02-20 22:41:00,
2013-02-20 14:51:00,37.0,27.0,-100.00,West,268,17.0,29.0,67,-99.99,,,-99.99,,2013-02-20 22:51:00,
2013-02-20 15:01:00,38.0,28.0,-100.00,West,261,17.0,25.0,66,-99.99,,,-99.99,,2013-02-20 23:01:00,
2013-02-20 15:12:00,38.0,28.0,-100.00,West,265,16.0,24.0,66,-99.99,,,-99.99,,2013-02-20 23:12:00,
2013-02-20 15:22:00,38.0,28.0,-100.00,West,263,16.0,22.0,66,-99.99,,,-99.99,,2013-02-20 23:22:00,
2013-02-20 15:31:00,38.0,28.0,-100.00,West,263,17.0,24.0,66,-99.99,,,-99.99,,2013-02-20 23:31:00,
2013-02-20 15:42:00,38.0,28.0,-100.00,West,267,15.0,22.0,66,-99.99,,,-99.99,,2013-02-20 23:42:00,
2013-02-20 15:52:00,37.0,27.0,-100.00,West,271,18.0,26.0,67,-99.99,,,-99.99,,2013-02-20 23:52:00,
2013-02-20 16:02:00,37.0,28.0,-100.00,West,259,14.0,21.0,69,-99.99,,,-99.99,,2013-02-21 00:02:00,
2013-02-20 16:11:00,37.0,28.0,-100.00,West,262,15.0,21.0,69,-99.99,,,-99.99,,2013-02-21 00:11:00,
2013-02-20 16:21:00,37.0,28.0,-100.00,West,263,16.0,24.0,70,-99.99,,,-99.99,,2013-02-21 00:21:00,
2013-02-20 16:31:00,36.0,29.0,-100.00,West,263,17.0,25.0,74,-99.99,,,-99.99,,2013-02-21 00:31:00,
2013-02-20 16:41:00,36.0,29.0,-100.00,West,263,17.0,25.0,74,-99.99,,,-99.99,,2013-02-21 00:41:00,
2013-02-20 16:52:00,36.0,29.0,-100.00,West,263,17.0,25.0,74,-99.99,,,-99.99,,2013-02-21 00:52:00,
2013-02-20 17:01:00,36.0,29.0,-100.00,WSW,246,16.0,22.0,75,-99.99,,,-99.99,,2013-02-21 01:01:00,
2013-02-20 17:11:00,36.0,29.0,-100.00,WSW,246,16.0,22.0,75,-99.99,,,-99.99,,2013-02-21 01:11:00,
2013-02-20 17:21:00,36.0,30.0,-100.00,WSW,247,15.0,22.0,79,-99.99,,,-99.99,,2013-02-21 01:21:00,
2013-02-20 17:32:00,36.0,31.0,-100.00,WSW,246,17.0,22.0,81,-99.99,,,-99.99,,2013-02-21 01:32:00,
2013-02-20 17:41:00,36.0,31.0,-100.00,WSW,252,17.0,24.0,83,-99.99,,,-99.99,,2013-02-21 01:41:00,
2013-02-20 17:51:00,36.0,32.0,-100.00,WSW,252,17.0,24.0,84,-99.99,,,-99.99,,2013-02-21 01:51:00,
2013-02-20 18:01:00,35.0,31.0,-100.00,WSW,251,14.0,25.0,86,-99.99,,,-99.99,,2013-02-21 02:01:00,
2013-02-20 18:11:00,36.0,32.0,-100.00,WSW,253,10.0,15.0,86,-99.99,,,-99.99,,2013-02-21 02:11:00,
2013-02-20 18:21:00,35.0,32.0,-100.00,WSW,254,14.0,20.0,87,-99.99,,,-99.99,,2013-02-21 02:21:00,
2013-02-20 18:32:00,35.0,32.0,-100.00,WSW,257,17.0,25.0,88,-99.99,,,-99.99,,2013-02-21 02:32:00,
2013-02-20 18:42:00,35.0,32.0,-100.00,WSW,257,17.0,25.0,88,-99.99,,,-99.99,,2013-02-21 02:42:00,
2013-02-20 18:51:00,35.0,32.0,-100.00,WSW,257,17.0,25.0,88,-99.99,,,-99.99,,2013-02-21 02:51:00,
2013-02-20 19:01:00,34.0,31.0,-100.00,WSW,255,17.0,24.0,89,-99.99,,,-99.99,,2013-02-21 03:01:00,
2013-02-20 19:11:00,34.0,31.0,-100.00,WSW,256,17.0,22.0,88,-99.99,,,-99.99,,2013-02-21 03:11:00,
2013-02-20 19:21:00,34.0,31.0,-100.00,West,259,15.0,21.0,87,-99.99,,,-99.99,,2013-02-21 03:21:00,
2013-02-20 19:31:00,34.0,30.0,-100.00,WSW,255,17.0,24.0,84,-99.99,,,-99.99,,2013-02-21 03:31:00,
2013-02-20 19:41:00,34.0,30.0,-100.00,WSW,256,14.0,21.0,85,-99.99,,,-99.99,,2013-02-21 03:41:00,
2013-02-20 19:51:00,33.0,29.0,-100.00,WSW,251,15.0,20.0,85,-99.99,,,-99.99,,2013-02-21 03:51:00,
2013-02-20 20:01:00,33.0,29.0,-100.00,WSW,254,8.0,16.0,86,-99.99,,,-99.99,,2013-02-21 04:01:00,
2013-02-20 20:11:00,33.0,29.0,-100.00,South,175,2.0,6.0,86,-99.99,,,-99.99,,2013-02-21 04:11:00,
2013-02-20 20:21:00,33.0,30.0,-100.00,SSE,153,5.0,8.0,88,-99.99,,,-99.99,,2013-02-21 04:21:00,
2013-02-20 20:31:00,33.0,30.0,-100.00,South,173,7.0,11.0,89,-99.99,,,-99.99,,2013-02-21 04:31:00,
2013-02-20 20:41:00,33.0,30.0,-100.00,SSW,200,7.0,10.0,90,-99.99,,,-99.99,,2013-02-21 04:41:00,
2013-02-20 20:51:00,31.0,29.0,-100.00,South,186,3.0,7.0,92,-99.99,,,-99.99,,2013-02-21 04:51:00,
2013-02-20 21:02:00,31.0,29.0,-100.00,South,186,3.0,7.0,92,-99.99,,,-99.99,,2013-02-21 05:02:00,
2013-02-20 21:12:00,31.0,29.0,-100.00,SSE,165,5.0,8.0,93,-99.99,,,-99.99,,2013-02-21 05:12:00,
2013-02-20 21:21:00,31.0,29.0,-100.00,South,176,6.0,9.0,94,-99.99,,,-99.99,,2013-02-21 05:21:00,
2013-02-20 21:32:00,31.0,29.0,-100.00,SSW,203,6.0,9.0,93,-99.99,,,-99.99,,2013-02-21 05:32:00,
2013-02-20 21:42:00,31.0,29.0,-100.00,SSW,203,6.0,9.0,93,-99.99,,,-99.99,,2013-02-21 05:42:00,
2013-02-20 21:52:00,31.0,29.0,-100.00,SSW,199,5.0,9.0,93,-99.99,,,-99.99,,2013-02-21 05:52:00,
2013-02-20 22:01:00,31.0,29.0,-100.00,SSW,199,5.0,9.0,93,-99.99,,,-99.99,,2013-02-21 06:01:00,
2013-02-20 22:11:00,30.0,28.0,-100.00,SW,217,7.0,8.0,94,-99.99,,,-99.99,,2013-02-21 06:11:00,
2013-02-20 22:21:00,30.0,28.0,-100.00,SW,217,7.0,8.0,94,-99.99,,,-99.99,,2013-02-21 06:21:00,
2013-02-20 22:31:00,30.0,29.0,-100.00,South,171,4.0,6.0,95,-99.99,,,-99.99,,2013-02-21 06:31:00,
2013-02-20 22:41:00,30.0,29.0,-100.00,South,171,4.0,6.0,95,-99.99,,,-99.99,,2013-02-21 06:41:00,
2013-02-20 22:51:00,30.0,28.0,-100.00,SSW,205,6.0,8.0,94,-99.99,,,-99.99,,2013-02-21 06:51:00,
2013-02-20 23:01:00,30.0,28.0,-100.00,SW,220,6.0,8.0,94,-99.99,,,-99.99,,2013-02-21 07:01:00,
2013-02-20 23:11:00,30.0,29.0,-100.00,SW,216,8.0,9.0,95,-99.99,,,-99.99,,2013-02-21 07:11:00,
2013-02-20 23:21:00,29.0,28.0,-100.00,SW,224,8.0,10.0,95,-99.99,,,-99.99,,2013-02-21 07:21:00,
2013-02-20 23:31:00,29.0,28.0,-100.00,SW,233,11.0,13.0,95,-99.99,,,-99.99,,2013-02-21 07:31:00,
2013-02-20 23:41:00,30.0,28.0,-100.00,SW,233,12.0,16.0,94,-99.99,,,-99.99,,2013-02-21 07:41:00,
2013-02-20 23:52:00,30.0,28.0,-100.00,SW,231,9.0,12.0,93,-99.99,,,-99.99,,2013-02-21 07:52:00,